Location: Hoyos del Collado
(40.3594°N, 5.2003°W)
Time: 15:03:30
(UTC+00:00)

CSL-04 Rocket - Visible Passes

Search period start: 12 July 2024 00:00
Search period end: 22 July 2024 00:00
Orbit: 806 x 858 km, 98.7° (Epoch: 11 July)

Date Brightness Start Highest point End Pass type
(mag) Time Alt. Az. Time Alt. Az. Time Alt. Az.
12 Jul 4.8 20:54:25 10° S 20:59:35 44° W 21:04:51 10° NNW visible
13 Jul 4.2 20:36:54 10° S 20:42:17 63° WSW 20:47:47 10° NNW visible
14 Jul 3.8 20:19:35 10° SSE 20:25:03 89° W 20:30:36 10° NNW visible
14 Jul 6.4 22:04:58 10° W 22:06:05 11° W 22:07:11 10° WNW visible
15 Jul 6.1 21:45:19 10° SW 21:48:36 16° W 21:51:56 10° NW visible
16 Jul 5.8 21:26:54 10° SW 21:31:10 23° W 21:35:30 10° NW visible
17 Jul 5.2 21:08:55 10° SSW 21:13:48 33° W 21:18:45 10° NNW visible
18 Jul 4.7 20:51:13 10° S 20:56:28 47° W 21:01:48 10° NNW visible
19 Jul 4.1 20:33:44 10° S 20:39:10 68° WSW 20:44:43 10° NNW visible
20 Jul 3.8 20:16:26 10° SSE 20:21:56 86° ENE 20:27:31 10° NNW visible
20 Jul 6.3 22:01:05 10° WSW 22:02:55 12° W 22:04:46 10° WNW visible
21 Jul 6.1 21:41:54 10° SW 21:45:27 17° W 21:49:02 10° NW visible
